Regional Weather Roundup
Issued by NWS

Home | Current Version | Previous Version | Graphics & Text | Print | Product List | Glossary On
Versions: 1 2 3 4 5 6 7 8 9 10 11 12 13 14 15 16 17 18 19 20 21 22 23 24 25 26 27 28 29 30 31 32 33 34 35 36 37 38 39 40 41 42 43 44 45 46 47 48 49 50
000
ASUS43 KFSD 270910
RWRSD

WEATHER ROUNDUP FOR SOUTH DAKOTA
NATIONAL WEATHER SERVICE SIOUX FALLS SD
400 AM CDT MON APR 27 2015

NOTE: "FAIR" INDICATES FEW OR NO CLOUDS BELOW 12,000 FEET WITH NO
SIGNIFICANT WEATHER AND/OR OBSTRUCTIONS TO VISIBILITY.


SDZ001>005-009-010-012>017-271000-
NORTHWEST AND NORTH CENTRAL SOUTH DAKOTA

CITY           SKY/WX    TMP DP  RH WIND       PRES   REMARKS
BUFFALO          N/A     41  40  96 NW15      30.14R
FAITH            N/A     45  38  76 N5        30.16R
MOBRIDGE       PTCLDY    41  33  73 N3        30.14R
$$

SDZ012>016-024>037-041>051-057-063-072>074-271000-
SOUTHWEST AND SOUTH CENTRAL SOUTH DAKOTA

CITY           SKY/WX    TMP DP  RH WIND       PRES   REMARKS
RAPID CTY ARPT CLOUDY    45  43  93 N9        30.17R
PIERRE         PTCLDY    38  32  79 NE3       30.15R
CUSTER         CLOUDY    38  36  92 CALM      30.18R FOG
ELLSWORTH AFB  CLOUDY    46  46 100 N13       30.17
PHILIP         CLOUDY    48  38  68 CALM      30.15S
PINE RIDGE     MOCLDY    41  38  89 CALM      30.16R
SPEARFISH      LGT RAIN  37  37 100 NW12      30.22R
WINNER         FAIR      41  28  60 CALM      30.16R
$$

SDZ004>011-016>023-039-040-271000-
NORTHEAST SOUTH DAKOTA

CITY           SKY/WX    TMP DP  RH WIND       PRES   REMARKS
ABERDEEN       CLEAR     35  28  75 W5        30.18S
WATERTOWN      CLEAR     35  25  66 CALM      30.17S
BROOKINGS      CLEAR     32  25  74 NW3       30.18S
SISSETON         N/A     38  27  64 CALM      30.18S
$$

SDZ017-020-022-023-036>040-048>070-271000-
SOUTHEAST SOUTH DAKOTA

CITY           SKY/WX    TMP DP  RH WIND       PRES   REMARKS
SIOUX FALLS    CLEAR     36  27  69 NE6       30.16R
HURON          CLEAR     39  27  62 E5        30.17R
CHAMBERLAIN    CLEAR     40  32  74 N3        30.16R
MITCHELL       CLEAR     39  33  79 CALM      30.17R
YANKTON        CLEAR     41  27  56 CALM      30.14R
$$

ABBREVIATIONS USED IN REMARKS
   TC - TEMPERATURE IN CELSIUS
  WCI - WIND CHILL INDEX
   HX - HEAT INDEX
  VSB - VISIBILITY



USA.gov is the U.S. government's official web portal to all federal, state and local government web resources and services.